Location: Kempttal
(47.4497°N, 8.7039°E)
Time: 12:46:11
(UTC+00:00)

Daily predictions for brighter satellites

Satellite Brightness Start Highest point End
(mag) Time Altitude Azimuth Time Altitude Azimuth Time Altitude Azimuth
CZ-4B R/B 3.3 16:01:59 10° SSE 16:07:20 86° WSW 16:12:51 10° NNW
IRS-1C Rocket 4.4 16:03:49 10° SE 16:08:50 46° ENE 16:13:51 10° N
PSLV R/B 4.5 16:08:06 10° NNE 16:12:02 40° E 16:15:53 10° S
Cosmos 2360 Rocket 4.1 16:09:51 10° W 16:14:08 21° NW 16:18:26 10° N
Cosmos 2278 Rocket 2.9 16:08:38 10° NNW 16:14:12 61° WSW 16:19:45 10° S
STARLINK-52 3.4 16:10:53 10° SW 16:14:21 61° SSE 16:17:50 10° ENE
USA 215 3.5 16:08:10 10° ENE 16:14:39 61° SE 16:21:06 10° SW
Cosmos 1782 Rocket 4.5 16:12:58 10° NNE 16:16:40 26° ENE 16:20:20 10° SE
COBE Rocket 4.5 16:13:47 10° NNE 16:18:06 35° E 16:22:25 10° SSE
STARLINK-67 3.9 16:16:33 10° NW 16:18:58 26° N 16:21:13 11° ENE
Helios 1A Rocket 3.3 16:15:42 10° S 16:19:46 69° WSW 16:23:51 10° NNW
STARLINK-29 3.2 16:18:56 10° SW 16:22:27 78° SSE 16:25:47 11° ENE
Cosmos 2369 Rocket 3.3 16:19:22 10° N 16:23:47 23° NE 16:28:11 10° E
Cosmos 1862 Rocket 3.6 16:20:34 10° S 16:24:56 89° W 16:29:24 10° N
RESURS DK-1 4.1 16:22:17 10° WSW 16:25:53 28° NW 16:29:31 10° N
STARLINK-46 4.0 16:25:49 10° WNW 16:28:06 24° N 16:29:56 13° NE
Cosmos 1703 Rocket 4.1 16:24:42 10° SSE 16:28:51 38° E 16:33:00 10° NNE
SMAP 3.1 16:25:29 10° SSE 16:30:03 60° ENE 16:34:39 10° N
Okean 2 Rocket 4.4 16:27:54 10° NNE 16:31:06 19° ENE 16:34:19 10° ESE
CORIOLIS 4.3 16:26:30 10° SSE 16:31:49 56° ENE 16:37:09 10° N
Cosmos 1743 3.6 16:28:31 10° NNE 16:31:52 27° ENE 16:35:11 10° SE
SL-16 R/B 2.7 16:26:50 10° S 16:32:10 43° ESE 16:37:32 10° NE
Feng Yun 1-1 Rocket 4.1 16:28:37 10° SSE 16:33:57 69° ENE 16:39:21 10° N
Cosmos 1536 2.9 16:30:04 10° N 16:34:06 84° W 16:38:05 10° S
Cosmos 1174 4.3 16:31:27 10° SSW 16:36:16 51° ESE 16:39:39 13° NE
Sich 1 Rocket 4.2 16:32:35 10° N 16:36:33 32° ENE 16:40:28 10° SE
CZ-4B R/B 3.7 16:35:30 10° NNW 16:38:22 24° WNW 16:41:11 10° WSW
Cosmos 2237 Rocket 2.5 16:33:59 10° SW 16:39:40 70° WNW 16:45:22 10° NNE
Lacrosse 5 rocket 2.6 16:38:00 10° W 16:41:50 31° NNW 16:44:56 13° NE
ALOS 4.3 16:38:20 10° SSW 16:42:28 31° W 16:46:39 10° NNW
Cosmos 1812 3.8 16:41:11 10° SSW 16:44:53 46° WNW 16:48:39 10° N
Cosmos 2219 Rocket 3.8 16:41:45 10° WSW 16:46:37 29° NW 16:51:32 10° NNE
Cosmos 1943 Rocket 2.8 16:41:30 10° NNW 16:46:40 35° NE 16:51:44 10° ESE
SL-4 R/B 2.4 16:43:18 10° WNW 16:46:55 44° N 16:49:31 19° ENE
NOSS 3-1 (C) 4.4 16:40:56 10° NW 16:47:37 40° NE 16:55:16 10° ESE
STARLINK-43 4.3 16:44:27 10° SSW 16:47:50 35° SE 16:50:01 18° E
Okean O Rocket 3.5 16:44:20 10° SSW 16:48:17 34° W 16:52:15 10° NNW
Cosmos 2333 Rocket 3.9 16:43:45 10° WSW 16:48:44 29° NW 16:53:44 10° NNE
USA 267 3.2 16:42:58 10° ESE 16:49:31 84° NNE 16:56:06 10° NW
Cosmos 1140 Rocket 4.1 16:45:09 10° SSE 16:49:47 36° ESE 16:53:37 14° NE
Abrixas rocket 4.0 16:47:55 10° S 16:50:02 18° SE 16:51:18 14° ESE
Okean 1 3.8 16:49:55 10° SSE 16:53:36 37° E 16:56:45 13° NNE
Envisat 3.0 16:50:14 10° SSE 16:55:12 57° ENE 17:00:11 10° N
Cosmos 2242 Rocket 4.0 16:52:18 10° SSW 16:56:52 68° W 17:01:27 10° N
Aureole 1 Rocket 2.5 16:54:44 10° SSW 16:57:44 67° WNW 17:00:54 12° NNE
Cosmos 1092 Rocket 4.0 16:51:33 10° S 16:57:51 84° E 17:04:07 10° N
Okean 1-7 3.0 16:54:13 10° S 16:58:30 64° E 17:02:52 10° NNE
USA 229 DEB 4.2 16:51:51 10° NW 16:58:37 43° NE 17:04:59 13° ESE
USA 229 4.2 16:51:58 10° NW 16:58:42 43° NE 17:05:00 13° ESE
Cosmos 1908 Rocket 3.9 16:55:08 10° NNW 16:59:30 67° W 17:03:48 10° S
CSL-04 Rocket 4.2 16:59:06 10° SE 17:03:48 34° ENE 17:08:35 10° N
Cosmos 407 Rocket 3.5 16:58:50 10° S 17:03:59 68° ESE 17:08:45 13° NNE
Cosmos 405 Rocket 4.2 17:01:13 10° NNE 17:09:24 - SE 17:02:41 18° NNE
Cosmos 1300 Rocket 4.3 17:04:06 10° N 17:07:53 28° ENE 17:11:37 10° SE
COSMO-SKYMED 1 3.1 17:05:20 19° NE 17:07:56 37° E 17:11:57 10° SSE
YAOGAN 3 4.5 17:06:40 10° SSE 17:11:02 85° ENE 17:15:25 10° NNW
YAOGAN 1 3.1 17:08:23 10° SE 17:12:18 35° ENE 17:16:15 10° N
CZ-4 R/B 1.6 17:09:47 10° SE 17:13:26 41° ENE 17:17:03 10° N
Okean-O 2.6 17:09:12 10° SSE 17:13:38 89° E 17:18:06 10° NNW
Meteor 1-19 Rocket 4.4 17:09:20 10° SSE 17:14:31 45° E 17:18:57 14° NNE
Cosmos 1441 Rocket 3.9 17:12:30 10° NNW 17:16:14 55° W 17:19:53 10° S
H-2A R/B 3.9 17:14:35 10° S 17:18:06 43° W 17:21:39 10° NNW
FALCON 9 DEB 3.8 17:15:32 10° W 17:18:55 46° NNW 17:19:57 34° NNE
NOAA 12 4.3 17:15:19 10° S 17:20:37 77° WSW 17:25:55 10° NNW
Cosmos 2297 4.5 17:17:22 10° NW 17:22:56 55° WSW 17:28:24 10° S
Cosmos 921 Rocket 4.0 17:19:35 10° NNW 17:23:45 49° WSW 17:27:58 10° S
CSL-04 Debris 4.3 17:20:14 10° SE 17:25:30 52° ENE 17:30:45 10° N
Cosmos 1975 2.6 17:24:04 10° N 17:28:04 73° E 17:32:04 10° SSE
SeaSat 1 4.4 17:29:56 14° NNE 17:29:56 14° NNE 17:31:14 10° N
Okean 3 3.7 17:25:36 10° SSE 17:29:34 44° E 17:29:51 43° E
Cosmos 1428 Rocket 4.5 17:25:11 10° S 17:31:23 87° W 17:37:42 10° N
S3M 3.9 17:25:30 10° N 17:31:39 61° ENE 17:37:42 10° SSE
SKYMED 3 4.5 17:29:41 25° NNE 17:32:06 66° ESE 17:36:25 10° S
Lacrosse 4 Rocket 3.7 17:30:47 10° N 17:31:11 11° N 17:31:11 11° N
Meteor 1-12 Rocket 4.3 17:30:28 10° N 17:36:13 54° ENE 17:41:49 10° SSE
Cosmos 2266 Rocket 4.3 17:31:03 10° SSE 17:36:59 42° E 17:40:17 24° NE
Cosmos 1515 4.1 17:34:13 10° S 17:37:12 44° SE 17:37:12 44° SE
Ariane Rocket 4.4 17:40:51 21° NNE 17:40:51 21° NNE 17:42:56 10° N
Lacrosse 5 2.6 17:33:58 10° SSW 17:38:32 34° SE 17:38:59 33° ESE
ATLAS 2AS CENTAUR R/B 4.4 17:34:48 10° WNW 17:41:12 25° N 17:45:10 17° NNE
YAOGAN 6 2.8 17:37:41 10° S 17:41:14 70° W 17:44:52 10° NNW
Cosmos 1553 Rocket 4.0 17:35:55 10° N 17:42:21 89° W 17:48:47 10° S
Cosmos 2151 Rocket 3.5 17:38:32 10° N 17:42:55 58° ENE 17:47:14 10° SSE
STARLINK-60 4.3 17:40:57 10° WNW 17:43:50 33° NNW 17:43:50 33° NNW
Uosat 12 SS-18 rocket 4.0 17:39:31 10° NW 17:44:21 89° SW 17:46:22 32° SE
Cosmos 1867 4.3 17:41:21 10° NW 17:46:40 54° WSW 17:51:56 10° SSE
STARLINK-48 4.0 17:44:11 10° SW 17:47:34 44° SSE 17:47:34 44° SSE
Cosmos 1763 Rocket 4.3 17:43:12 10° N 17:46:31 31° NNE 17:46:31 31° NNE
Meteor 2-9 Rocket 4.2 17:43:06 10° NNW 17:49:00 88° W 17:54:46 10° S
CZ-4C R/B 2.6 17:44:59 10° S 17:49:23 38° ESE 17:49:23 38° ESE
STARLINK-52 4.2 17:48:23 10° W 17:51:25 38° NNW 17:51:25 38° NNW
NOAA 11 4.1 17:47:02 10° SSE 17:52:26 67° ENE 17:57:54 10° N
SKYMED 2 3.7 17:53:59 29° N 17:56:09 71° WNW 18:00:27 10° SSW
Cosmos 1943 3.5 17:51:43 10° S 17:56:43 45° ESE 17:56:43 45° ESE
USA 215 3.6 17:54:37 32° NE 17:57:39 57° NNW 18:04:01 10° W
ATLAS 5 CENTAUR R/B 3.7 17:57:30 10° WNW 17:58:07 14° WNW 17:58:07 14° WNW
Meteor 1-13 Rocket 4.3 17:55:20 10° S 18:00:22 52° ESE 18:00:22 52° ESE
Cosmos 676 Rocket 4.1 17:59:08 10° SSW 18:04:17 72° WNW 18:06:19 37° N
Cosmos 1656 Rocket 4.1 18:01:49 10° NNW 18:06:00 43° NNE 18:06:00 43° NNE
Cosmos 2369 Rocket 2.2 18:02:48 10° NNW 18:08:27 78° WSW 18:13:17 14° SSE
BREEZE-M R/B 3.5 18:04:39 10° WNW 18:08:07 46° W 18:08:07 46° W
Okean 2 Rocket 3.9 18:05:09 10° NNW 18:09:30 50° W 18:13:51 10° SSW
Cosmos 1954 Rocket 4.2 18:05:14 10° SSW 18:10:23 68° WNW 18:12:08 41° N
Cosmos 2221 Rocket 4.4 18:10:46 10° SSW 18:15:04 48° WNW 18:16:58 29° NNW
SL-16 R/B 3.5 18:11:10 10° WSW 18:16:23 36° NW 18:19:41 20° N
Cosmos 2315 Rocket 3.9 18:12:14 10° N 18:18:35 67° E 18:18:42 67° E
IRIDIUM 104 4.3 18:14:19 10° S 18:19:32 82° W 18:20:58 49° N
Cosmos 883 Rocket 4.3 18:13:11 10° N 18:19:33 83° E 18:25:50 10° S
Lacrosse 5 rocket 3.5 18:18:50 10° NW 18:20:34 17° NNW 18:20:34 17° NNW
Cosmos 1603 3.6 18:17:36 10° SSW 18:23:20 89° WNW 18:23:46 78° NNE
SL-4 R/B 3.5 18:22:53 10° WNW 18:25:08 33° WNW 18:25:08 33° WNW
Cosmos 1943 Rocket 3.2 18:25:13 10° NW 18:30:32 44° WSW 18:35:47 10° S
Meteor 2-8 Rocket 4.3 18:27:32 10° N 18:33:38 89° W 18:34:17 73° S
NOSS 3-1 (C) 4.1 18:31:40 10° NW 18:39:11 75° SW 18:43:01 36° SSE
Meteor 2-4 Rocket 4.4 18:39:29 10° SSW 18:45:12 53° WNW 18:47:11 37° NNW
CZ-4 R/B 4.1 18:46:00 10° SW 18:48:39 18° W 18:51:18 10° NW
USA 229 DEB 4.2 18:42:50 10° NW 18:49:59 63° WSW 18:52:32 42° S
USA 229 4.2 18:42:56 10° NW 18:50:04 63° WSW 18:52:32 43° S
Gbstr 26 Del rocket 4.3 18:43:44 10° SW 18:49:19 57° SSW 18:49:19 57° SSW
NOSS 3-1 (A) 4.0 18:48:07 10° NW 18:55:39 84° SW 18:56:30 74° SSE
Cosmos 2344 4.4 18:49:12 10° NW 18:58:56 83° SW 19:05:28 35° SSE
Lacrosse 5 4.0 19:16:17 10° WSW 19:18:13 23° WSW 19:18:13 23° WSW
ATLAS 2AS CENTAUR R/B 4.5 19:28:15 10° NW 19:32:37 24° N 19:32:37 24° N
CZ-4C R/B 4.3 19:32:56 10° WSW 19:34:36 20° WSW 19:34:36 20° WSW
